Regional Weather Roundup
Issued by NWS Albany, NY

Home | Current Version | Previous Version | Text Only | Print | Product List | Glossary On
Versions: 1 2 3 4 5 6 7 8 9 10 11 12 13 14 15 16 17 18 19 20 21 22 23 24 25 26 27 28 29 30 31 32 33 34 35 36 37 38 39 40 41 42 43 44 45 46 47 48 49 50
000
ASUS41 KALY 212110
RWRALY

NEW YORK STATE HOURLY WEATHER ROUNDUP
NATIONAL WEATHER SERVICE ALBANY NY
500 PM EDT TUE AUG 21 2018

NOTE: "FAIR" INDICATES FEW OR NO CLOUDS BELOW 12,000 FEET WITH NO
SIGNIFICANT WEATHER AND/OR NO OBSTRUCTIONS TO VISIBILITY.

NYZ032-033-038>043-046>054-057>066-NYZ062>081-082-084-212200-
EAST


CITY           SKY/WX    TMP DP  RH WIND       PRES   REMARKS
ALBANY         PTSUNNY   78  61  55 S10       29.95F
GLENS FALLS    CLOUDY    75  63  66 S7        29.94F
POUGHKEEPSIE   CLOUDY    76  61  59 S7        29.97F
NEWBURGH       PTSUNNY   77  64  65 SE9       30.00
MONTGOMERY     CLOUDY    76  65  68 SE5       29.97F
WHITE PLAINS   FAIR      74  64  71 SE9       30.00F
ISLIP          PTSUNNY   72  66  81 SE13      30.01F
NEW YORK CITY  PTSUNNY   77  63  61 SE13      29.99F
CENTRAL PARK   PTSUNNY   74  65  73 S6        30.02F
$$

NYZ005>009-017-018-044>046-055-056-212200-
CENTRAL


CITY           SKY/WX    TMP DP  RH WIND       PRES   REMARKS
FULTON         PTSUNNY   73  64  73 SE8       29.81F
SYRACUSE       PTSUNNY   73  68  84 SE14G22   29.83F
ROME           PTSUNNY   70  68  93 SE12      29.90F
ELMIRA         CLOUDY    73  66  78 SE10      29.85F
BINGHAMTON     CLOUDY    67  64  90 S13G21    29.92F
MONTICELLO     CLOUDY    70  63  78 SE12      30.01F
$$

NYZ026>034-041>043-087-212200-
NORTH


CITY           SKY/WX    TMP DP  RH WIND       PRES   REMARKS
WATERTOWN      FAIR      73  66  78 S7G22     29.80F
FORT DRUM      NOT AVBL
OGDENSBURG     DRIZZLE   70  68  95 CALM      29.83F
MASSENA        LGT RAIN  70  68  93 E3        29.87F
SARANAC LAKE   CLOUDY    69  60  73 S10       29.93F
PLATTSBURGH    NOT AVBL
$$

NYZ001>004-010>016-019>021-085-212200-
WEST


CITY           SKY/WX    TMP DP  RH WIND       PRES   REMARKS
NIAGARA FALLS  FAIR      81  69  67 S20G29    29.68F
BUFFALO        PTSUNNY   80  69  69 S21G29    29.69F
DUNKIRK        FAIR      78  69  73 S18G28    29.70F
JAMESTOWN      CLOUDY    73  70  90 S15G22    29.78F
WELLSVILLE     LGT RAIN  69  68  96 S14G23    29.87F
ROCHESTER      CLOUDY    76  69  79 S13       29.75F
PENN YAN       CLOUDY    73  67  81 S8        29.83F
$$

             KEY
       WCI = WIND CHILL INDEX
       VSB = VISIBILITY
       HX  = HEAT INDEX
$$



USA.gov is the U.S. government's official web portal to all federal, state and local government web resources and services.